DK7LH-6 Weather Reports


Display with metric or nautical units.
time (UTC)temp
F
wind
direction
speed
MPH
gust
MPH
rain 1hr
in
rain 24hr
in
rain mn
in
humidity
%
barometer
mb
20260506164556 49 69 1.0 1.0 0.01 0.19 0.19 91 1008.5
20260506163026 49 61 1.0 1.0 0.02 0.19 0.19 91 1008.6
20260506161557 49 50 1.0 1.0 0.03 0.19 0.19 92 1008.6
20260506160027 49 31 0.0 1.0 0.03 0.18 0.18 92 1008.7
20260506154559 49 18 0.0 1.0 0.04 0.18 0.18 91 1008.7
20260506153029 49 33 1.0 3.0 0.04 0.17 0.17 91 1008.8
20260506151601 49 22 2.0 4.0 0.04 0.16 0.16 90 1008.8
20260506150031 49 40 1.0 3.0 0.04 0.15 0.15 90 1008.8
20260506144603 49 36 2.0 4.0 0.05 0.14 0.14 90 1008.6
20260506143033 49 30 1.0 4.0 0.05 0.13 0.13 89 1008.6
20260506141606 48 46 1.0 3.0 0.05 0.12 0.12 89 1008.6
20260506140036 48 31 1.0 3.0 0.05 0.11 0.11 88 1008.6
20260506134607 48 23 1.0 3.0 0.03 0.09 0.09 87 1008.6
20260506133037 48 9 2.0 6.0 0.03 0.08 0.08 86 1008.7
20260506131609 48 6 3.0 7.0 0.03 0.07 0.07 85 1008.5
20260506130039 48 352 2.0 6.0 0.03 0.06 0.06 85 1008.5
20260506124611 49 26 2.0 7.0 0.03 0.06 0.06 85 1008.4
20260506123112 49 25 1.0 3.0 0.03 0.05 0.05 85 1008.3
20260506121542 49 33 2.0 4.0 0.03 0.04 0.04 86 1008.3
20260506120114 49 54 1.0 7.0 0.02 0.03 0.03 84 1008.2
20260506114544 49 53 1.0 3.0 0.02 0.03 0.03 84 1008.1
20260506113116 49 359 2.0 6.0 0.02 0.02 0.02 81 1008.1
20260506111546 49 81 3.0 7.0 0.01 0.01 0.01 79 1008.2
20260506110016 49 50 2.0 4.0 0.01 0.01 0.01 80 1008.0
20260506104548 49 30 2.0 6.0 0.01 0.01 0.01 78 1008.0
20260506103018 50 50 1.0 4.0 0.00 0.00 0.00 79 1008.0
20260506101550 50 54 2.0 4.0 0.00 0.00 0.00 78 1008.0
20260506100020 50 69 1.0 4.0 0.00 0.00 0.00 75 1008.0
20260506094552 51 79 2.0 4.0 0.00 0.00 0.00 73 1007.8
20260506093022 51 33 3.0 7.0 0.00 0.00 0.00 72 1007.9
20260506091554 51 43 4.0 9.0 0.00 0.00 0.00 70 1007.7
20260506090024 51 28 2.0 6.0 0.00 0.00 0.00 70 1007.6
20260506084556 50 35 2.0 6.0 0.00 0.00 0.00 71 1007.6
20260506083026 50 31 3.0 9.0 0.00 0.00 0.00 72 1007.5
20260506081558 50 71 4.0 13.0 0.00 0.00 0.00 69 1007.2
20260506073030 50 28 4.0 10.0 0.00 0.00 0.00 75 1007.0
20260506071602 49 24 4.0 7.0 0.00 0.00 0.00 76 1006.9
20260506070104 49 29 4.0 7.0 0.00 0.00 0.00 78 1006.9
20260506061536 48 34 4.0 13.0 0.00 0.00 0.00 82 1006.8
20260506060108 48 3 4.0 9.0 0.00 0.00 0.00 83 1006.9
20260506050111 48 31 2.0 7.0 0.00 0.00 0.00 84 1006.9
20260506044541 49 33 3.0 10.0 0.00 0.00 0.00 83 1006.9
20260506043113 49 28 3.0 6.0 0.00 0.00 0.00 81 1006.9
20260506041543 49 26 4.0 11.0 0.00 0.00 0.00 79 1007.0
20260506040045 49 23 1.0 4.0 0.00 0.00 0.00 77 1007.0
20260506034616 49 347 2.0 4.0 0.00 0.00 0.00 78 1006.8
20260506033046 49 58 2.0 6.0 0.00 0.00 0.00 80 1006.9
20260506031516 50 43 2.0 6.0 0.00 0.00 0.00 81 1007.1
20260506030049 50 24 2.0 6.0 0.00 0.00 0.00 81 1007.2
20260506024519 50 51 2.0 3.0 0.00 0.00 0.00 82 1007.4
20260506023050 50 17 3.0 13.0 0.00 0.00 0.00 82 1007.3
20260506021520 50 30 2.0 7.0 0.00 0.00 0.00 82 1007.3
20260506020053 50 19 2.0 6.0 0.00 0.00 0.00 82 1007.5
20260506014523 50 9 2.0 6.0 0.00 0.00 0.00 82 1007.6
20260506013054 50 67 3.0 7.0 0.00 0.00 0.00 82 1007.6
20260506011524 51 48 3.0 9.0 0.00 0.01 0.00 82 1007.6
20260506010057 51 81 3.0 14.0 0.00 0.03 0.00 82 1007.7
20260506004527 51 13 1.0 4.0 0.00 0.10 0.00 82 1007.7
20260506003058 51 43 2.0 7.0 0.00 0.16 0.00 82 1007.9
20260506001528 51 29 1.0 3.0 0.00 0.18 0.00 82 1007.8
20260506000101 51 43 2.0 7.0 0.00 0.23 0.00 82 1008.0
20260505234531 51 37 2.0 7.0 0.00 0.23 0.00 82 1008.1
20260505233102 52 1 2.0 7.0 0.00 0.24 0.00 83 1008.2
20260505231532 52 22 1.0 1.0 0.00 0.24 0.00 83 1008.3
20260505230105 52 23 1.0 3.0 0.00 0.24 0.00 84 1008.4
20260505224535 52 36 4.0 10.0 0.00 0.24 0.00 84 1008.3
20260505223106 52 20 3.0 6.0 0.00 0.24 0.00 83 1008.3
20260505221536 52 24 4.0 6.0 0.00 0.24 0.00 82 1008.4
20260505220109 52 9 3.0 6.0 0.00 0.24 0.00 82 1008.6
20260505214539 52 16 3.0 6.0 0.00 0.24 0.24 83 1008.7
20260505213110 52 15 2.0 4.0 0.00 0.24 0.24 85 1008.8
20260505211540 52 7 1.0 3.0 0.00 0.24 0.24 85 1008.8
20260505210112 52 40 2.0 6.0 0.00 0.24 0.24 87 1008.8
20260505204542 53 24 3.0 7.0 0.00 0.24 0.24 87 1008.9
20260505203114 53 22 4.0 7.0 0.00 0.24 0.24 88 1008.9
20260505201545 53 31 4.0 6.0 0.00 0.24 0.24 88 1008.8
20260505200116 53 15 3.0 6.0 0.00 0.24 0.24 89 1008.8
20260505194546 53 5 4.0 9.0 0.00 0.24 0.24 89 1008.8
20260505193016 53 25 5.0 10.0 0.00 0.24 0.24 88 1008.5
20260505191548 53 9 5.0 7.0 0.00 0.24 0.24 89 1008.5
20260505190018 53 9 5.0 9.0 0.00 0.24 0.24 88 1008.5
20260505184550 53 16 5.0 10.0 0.00 0.24 0.24 87 1008.6
20260505183020 53 26 4.0 6.0 0.00 0.24 0.24 87 1008.5
20260505181552 53 2 5.0 10.0 0.00 0.24 0.24 87 1008.6
20260505180022 53 15 6.0 11.0 0.00 0.24 0.24 88 1008.6
20260505174554 53 355 6.0 9.0 0.00 0.24 0.24 88 1008.7
20260505173024 53 15 6.0 9.0 0.00 0.24 0.24 88 1008.7
20260505171556 53 4 7.0 10.0 0.00 0.24 0.24 87 1008.8
20260505170026 53 5 7.0 13.0 0.00 0.24 0.24 87 1008.9